Blackwell, OK

6:28 PM CDT on March 29, 2017 (GMT -0500)
Blackwell

Weather History for KBKN - August, 2013

Change the Weather History Date:

Saturday, August 3, 2013

  Actual Average (KPNC) Record (KPNC)
Temperature  
Mean Temperature 82 °F -  
Max Temperature 89 °F 94 °F 108 °F (2011)
Min Temperature 75 °F 67 °F 59 °F (1950)
Cooling Degree Days 17    
Growing Degree Days 32 (Base 50)    
Moisture  
Dew Point 74 °F    
Average Humidity 80    
Maximum Humidity 94    
Minimum Humidity 62    
Precipitation  
Precipitation 0.03 in - - ()
Sea Level Pressure  
Sea Level Pressure 29.96 in    
Wind  
Wind Speed 12 mph (East)    
Max Wind Speed 20 mph    
Max Gust Speed 28 mph    
Visibility 10 miles    
Events Rain    
Averages and records for this station are not official NWS values.
T = Trace of Precipitation, MM = Missing Value Source: NWS Daily Summary

Daily Weather History Graph

Daily Weather History Graph

Search for Another Location

Airport or City:

Trip Planner

Search our weather history database for the weather conditions in past years. The results will help you decide how hot, cold, wet, or windy it might be!

Date:

Astronomy

Aug. 03, 2013 Rise Set
Actual Time 6:36 AM CDT 8:33 PM CDT
Civil Twilight 6:08 AM CDT 9:01 PM CDT
Nautical Twilight 5:34 AM CDT 9:36 PM CDT
Astronomical Twilight 4:56 AM CDT 10:13 PM CDT
Moon 3:48 AM CDT (8/3) 6:16 PM CDT (8/3)
Length of Visible Light 14h 53m
Length of Day
13h 56m
Waning Crescent, 9% of the Moon is Illuminated
Aug 3
Waning Crescent
Aug 6
New
Aug 14
First Quarter
Aug 20
Full
Aug 28
Last Quarter

Hourly Weather History & Observations

Time (CDT) Temp. Heat Index Dew Point Humidity Pressure Visibility Wind Dir Wind Speed Gust Speed Precip Events Conditions
12:15 AM 82.4 °F 88.2 °F 73.4 °F 74% 29.89 in 10.0 mi NNW 16.1 mph 27.6 mph N/A Rain Light Rain
12:35 AM 82.4 °F 89.5 °F 75.2 °F 79% 29.89 in 10.0 mi North 8.1 mph - N/A Rain Light Rain
12:55 AM 80.6 °F 86.2 °F 75.2 °F 84% 29.90 in 10.0 mi NNE 5.8 mph - N/A   Mostly Cloudy
1:15 AM 80.6 °F 86.2 °F 75.2 °F 84% 29.90 in 10.0 mi ENE 6.9 mph - N/A   Overcast
1:35 AM 80.6 °F 86.2 °F 75.2 °F 84% 29.91 in 10.0 mi East 8.1 mph - N/A   Overcast
1:55 AM 80.6 °F 86.2 °F 75.2 °F 84% 29.92 in 10.0 mi ESE 6.9 mph - N/A   Overcast
2:15 AM 77.0 °F - 75.2 °F 94% 29.92 in 10.0 mi NE 6.9 mph - N/A Rain Light Rain
2:35 AM 77.0 °F - 75.2 °F 94% 29.92 in 10.0 mi North 10.4 mph - N/A Rain Light Rain
2:55 AM 77.0 °F - 75.2 °F 94% 29.92 in 10.0 mi ENE 8.1 mph - N/A   Mostly Cloudy
3:15 AM 77.0 °F - 75.2 °F 94% 29.92 in 10.0 mi NNE 6.9 mph - N/A   Partly Cloudy
3:35 AM 77.0 °F - 73.4 °F 89% 29.93 in 10.0 mi NE 9.2 mph - N/A   Partly Cloudy
3:55 AM 77.0 °F - 73.4 °F 89% 29.92 in 10.0 mi NNE 8.1 mph - N/A   Mostly Cloudy
4:15 AM 77.0 °F - 73.4 °F 89% 29.92 in 10.0 mi NE 13.8 mph - N/A   Scattered Clouds
4:35 AM 75.2 °F - 71.6 °F 89% 29.92 in 10.0 mi ENE 10.4 mph - N/A   Partly Cloudy
4:55 AM 75.2 °F - 71.6 °F 89% 29.93 in 10.0 mi ENE 9.2 mph 16.1 mph N/A   Scattered Clouds
5:15 AM 77.0 °F - 71.6 °F 83% 29.93 in 10.0 mi East 8.1 mph 25.3 mph N/A   Mostly Cloudy
5:35 AM 75.2 °F - 71.6 °F 89% 29.93 in 10.0 mi ESE 6.9 mph - N/A   Mostly Cloudy
5:55 AM 75.2 °F - 71.6 °F 89% 29.92 in 8.0 mi East 9.2 mph - N/A Rain Light Rain
6:15 AM 75.2 °F - 71.6 °F 89% 29.92 in 10.0 mi East 9.2 mph - N/A   Mostly Cloudy
6:35 AM 75.2 °F - 71.6 °F 89% 29.93 in 9.0 mi East 6.9 mph - 0.01 in Rain Light Rain
6:55 AM 75.2 °F - 71.6 °F 89% 29.93 in 10.0 mi East 10.4 mph - 0.02 in   Mostly Cloudy
7:15 AM 75.2 °F - 73.4 °F 94% 29.93 in 10.0 mi ESE 10.4 mph - N/A   Mostly Cloudy
7:35 AM 75.2 °F - 73.4 °F 94% 29.94 in 10.0 mi East 9.2 mph - N/A   Scattered Clouds
7:55 AM 75.2 °F - 73.4 °F 94% 29.93 in 10.0 mi ESE 10.4 mph 16.1 mph N/A   Partly Cloudy
8:15 AM 77.0 °F - 71.6 °F 83% 29.93 in 10.0 mi SE 10.4 mph - N/A   Clear
8:35 AM 77.0 °F - 71.6 °F 83% 29.93 in 10.0 mi SE 11.5 mph - 0.01 in   Clear
8:55 AM 77.0 °F - 71.6 °F 83% 29.93 in 10.0 mi SE 11.5 mph - 0.01 in Rain Light Rain
9:15 AM 77.0 °F - 71.6 °F 83% 29.93 in 9.0 mi SE 15.0 mph - N/A Rain Light Rain
9:35 AM 78.8 °F - 71.6 °F 78% 29.94 in 10.0 mi SE 15.0 mph 20.7 mph N/A   Partly Cloudy
9:55 AM 80.6 °F 84.6 °F 71.6 °F 74% 29.95 in 10.0 mi SE 15.0 mph 23.0 mph N/A   Clear
10:15 AM 80.6 °F 84.6 °F 71.6 °F 74% 29.95 in 10.0 mi SSE 17.3 mph 21.9 mph N/A   Clear
10:35 AM 80.6 °F 84.6 °F 71.6 °F 74% 29.96 in 10.0 mi SSE 17.3 mph 23.0 mph N/A   Clear
10:55 AM 80.6 °F 85.4 °F 73.4 °F 79% 29.97 in 8.0 mi SE 15.0 mph 23.0 mph N/A Rain Light Rain
11:15 AM 80.6 °F 85.4 °F 73.4 °F 79% 29.98 in 10.0 mi SSE 12.7 mph 19.6 mph N/A   Clear
11:35 AM 82.4 °F 88.2 °F 73.4 °F 74% 29.98 in 10.0 mi SE 13.8 mph 24.2 mph N/A Rain Light Rain
11:55 AM 84.2 °F 90.9 °F 73.4 °F 70% 29.97 in 10.0 mi SSE 17.3 mph 27.6 mph N/A   Clear
12:15 PM 86.0 °F 93.4 °F 73.4 °F 66% 29.98 in 10.0 mi SSE 17.3 mph 27.6 mph N/A   Clear
12:35 PM 84.2 °F 90.9 °F 73.4 °F 70% 29.98 in 10.0 mi SE 18.4 mph 25.3 mph N/A   Clear
12:55 PM 84.2 °F 90.9 °F 73.4 °F 70% 29.98 in 10.0 mi SE 16.1 mph 24.2 mph N/A   Clear
1:15 PM 82.4 °F 88.2 °F 73.4 °F 74% 29.98 in 10.0 mi SE 18.4 mph 24.2 mph N/A Rain Light Rain
1:35 PM 84.2 °F 90.9 °F 73.4 °F 70% 29.98 in 10.0 mi SE 16.1 mph 24.2 mph N/A   Clear
1:55 PM 86.0 °F 93.4 °F 73.4 °F 66% 29.97 in 10.0 mi SE 16.1 mph 26.5 mph N/A   Clear
2:15 PM 86.0 °F 93.4 °F 73.4 °F 66% 29.97 in 10.0 mi SE 17.3 mph 26.5 mph N/A   Clear
2:35 PM 86.0 °F 93.4 °F 73.4 °F 66% 29.97 in 10.0 mi SE 18.4 mph 23.0 mph N/A   Clear
2:55 PM 87.8 °F 95.6 °F 73.4 °F 62% 29.96 in 10.0 mi SE 16.1 mph 23.0 mph N/A   Clear
3:15 PM 89.6 °F 99.8 °F 75.2 °F 62% 29.96 in 10.0 mi SE 15.0 mph 20.7 mph N/A   Clear
3:35 PM 89.6 °F 99.8 °F 75.2 °F 62% 29.96 in 10.0 mi SE 15.0 mph 21.9 mph N/A   Clear
3:55 PM 89.6 °F 99.8 °F 75.2 °F 62% 29.96 in 10.0 mi ESE 12.7 mph 19.6 mph N/A   Clear
4:15 PM 89.6 °F 102.2 °F 77.0 °F 66% 29.95 in 10.0 mi ESE 13.8 mph 20.7 mph N/A   Scattered Clouds
4:35 PM 89.6 °F 99.8 °F 75.2 °F 62% 29.95 in 10.0 mi East 16.1 mph 19.6 mph N/A   Scattered Clouds
4:55 PM 89.6 °F 99.8 °F 75.2 °F 62% 29.96 in 10.0 mi East 13.8 mph - N/A   Clear
5:15 PM 89.6 °F 99.8 °F 75.2 °F 62% 29.96 in 10.0 mi East 13.8 mph 21.9 mph N/A   Clear
5:35 PM 89.6 °F 102.2 °F 77.0 °F 66% 29.96 in 10.0 mi East 18.4 mph 24.2 mph N/A   Clear
5:55 PM 86.0 °F 95.1 °F 75.2 °F 70% 29.96 in 10.0 mi East 17.3 mph 21.9 mph N/A   Clear
6:15 PM 86.0 °F 95.1 °F 75.2 °F 70% 29.96 in 10.0 mi East 19.6 mph 23.0 mph N/A   Clear
6:35 PM 84.2 °F 92.3 °F 75.2 °F 74% 29.96 in 10.0 mi East 15.0 mph 21.9 mph N/A   Clear
6:55 PM 84.2 °F 92.3 °F 75.2 °F 74% 29.96 in 10.0 mi East 16.1 mph 21.9 mph N/A   Clear
7:15 PM 82.4 °F 88.2 °F 73.4 °F 74% 29.96 in 10.0 mi East 15.0 mph 20.7 mph N/A   Clear
7:35 PM 80.6 °F 86.2 °F 75.2 °F 84% 29.98 in 10.0 mi East 10.4 mph - N/A   Clear
7:55 PM 78.8 °F - 73.4 °F 83% 29.98 in 10.0 mi East 11.5 mph - N/A   Clear
8:15 PM 78.8 °F - 73.4 °F 83% 29.98 in 10.0 mi East 12.7 mph - N/A   Partly Cloudy
8:35 PM 77.0 °F - 73.4 °F 89% 29.99 in 10.0 mi ENE 10.4 mph - N/A   Mostly Cloudy
8:55 PM 77.0 °F - 73.4 °F 89% 30.01 in 10.0 mi ENE 11.5 mph - N/A   Overcast
9:15 PM 77.0 °F - 73.4 °F 89% 30.02 in 10.0 mi NE 12.7 mph - N/A   Overcast
9:35 PM 77.0 °F - 73.4 °F 89% 30.03 in 10.0 mi ENE 12.7 mph - N/A   Overcast
9:55 PM 75.2 °F - 73.4 °F 94% 30.03 in 10.0 mi East 12.7 mph - N/A   Partly Cloudy
10:15 PM 75.2 °F - 73.4 °F 94% 30.04 in 10.0 mi ENE 10.4 mph - N/A   Mostly Cloudy
10:35 PM 75.2 °F - 73.4 °F 94% 30.04 in 10.0 mi East 12.7 mph - N/A   Overcast
10:55 PM 75.2 °F - 73.4 °F 94% 30.04 in 10.0 mi East 13.8 mph - N/A   Overcast
11:15 PM 75.2 °F - 73.4 °F 94% 30.05 in 10.0 mi East 6.9 mph - N/A   Overcast
11:35 PM 75.2 °F - 73.4 °F 94% 30.04 in 10.0 mi East 10.4 mph - N/A   Mostly Cloudy
11:55 PM 75.2 °F - 73.4 °F 94% 30.03 in 10.0 mi ESE 10.4 mph 16.1 mph N/A   Mostly Cloudy